Dewpoint
50 50 51 51 50 50 50 50 50 50 50 51 51 52 52 51 52 49 46 45 43 38 39 40 39 35 37 34 32 33 32 32 32 29 25 25 22 22 21 21 19 16 18 24 26 24 22 32 36 34 37 39 49 50
51 50 50 51 51 51 50 50 50 50 51 51 52 52 52 51 52 48 43 45 45 41 37 42 42 41 39 37 34 35 33 34 34 32 32 33 31 31 26 20 29 19 26 27 27 28 33 36 35 35 37 44 50 53
51 51 51 50 51 51 51 50 50 50 51 52 52 52 52 52 51 49 43 44 43 40 39 37 38 40 40 40 37 33 34 34 33 35 34 34 32 35 30 29 29 30 31 28 29 32 32 33 33 34 37 38 47 52
52 52 51 51 51 50 50 50 50 51 52 52 52 52 52 51 52 50 43 44 43 40 36 36 40 38 39 37 37 35 35 36 36 35 33 32 31 33 31 32 28 30 30 29 30 32 33 35 34 35 37 40 41 46
52 52 52 52 52 52 52 51 51 51 52 52 52 52 51 51 52 46 44 45 45 40 36 36 38 39 36 37 37 37 36 36 36 33 32 31 33 32 32 31 28 29 28 30 29 32 34 35 35 37 39 44 44 42
52 52 52 52 52 52 52 52 51 51 52 52 52 51 51 51 49 45 45 46 45 44 38 34 38 37 38 36 38 37 37 38 37 35 34 35 35 32 29 28 29 30 32 32 31 34 33 34 35 37 40 44 46 46
52 52 52 52 52 52 52 51 51 52 52 52 52 52 52 51 44 43 44 45 48 44 39 33 34 36 41 41 42 42 41 38 36 36 35 35 35 34 31 29 30 32 35 38 36 34 34 35 34 36 39 43 46 47
52 52 52 52 52 52 52 51 51 52 52 51 51 52 52 49 48 44 46 49 46 42 39 32 32 38 42 40 38 41 39 38 38 36 36 35 35 35 32 33 34 42 45 43 43 41 37 36 36 37 40 44 43 43
52 52 52 52 52 53 52 52 52 52 52 52 51 51 48 48 43 44 51 48 44 41 35 34 32 32 41 38 38 39 38 34 37 35 35 37 34 31 33 34 42 46 45 46 46 43 43 39 38 39 40 45 45 44
52 52 52 52 52 52 52 52 51 52 52 51 48 42 39 44 52 50 42 39 38 37 36 32 34 33 39 37 36 36 36 35 31 34 38 35 34 36 36 37 46 47 47 47 44 43 42 41 37 38 40 42 45 46
52 52 52 52 52 52 52 52 51 50 48 44 43 41 45 49 45 41 36 35 35 34 36 35 35 34 39 35 34 37 33 36 30 32 35 33 33 38 46 47 48 47 47 47 47 46 44 44 43 44 44 44 46 48
52 52 52 52 52 52 51 51 51 45 43 44 43 44 44 41 37 36 38 39 39 39 41 37 39 39 38 38 35 37 32 34 29 37 35 32 36 39 46 46 47 47 47 46 47 47 47 47 46 47 47 47 47 47
52 52 52 52 52 52 51 51 51 51 48 45 42 37 34 35 32 34 36 39 39 43 43 43 42 41 39 38 39 38 34 30 36 32 32 34 38 44 44 46 45 45 46 46 47 47 47 47 47 47 47 47 48 48
51 52 52 52 51 51 52 52 51 49 44 40 37 31 37 37 40 41 41 42 44 42 41 41 40 38 42 39 39 35 36 39 31 32 31 37 41 45 46 46 46 46 45 46 47 48 48 48 48 48 48 47 47 47
51 52 51 51 52 52 52 51 51 45 40 37 39 37 38 41 42 42 42 41 41 40 38 37 37 39 41 40 39 38 33 33 33 33 39 43 44 46 46 47 48 48 49 48 48 48 48 49 49 49 49 49 48 48
51 51 50 52 52 52 51 48 45 43 41 39 38 38 40 39 40 40 41 40 42 43 38 38 36 35 39 40 36 35 34 33 37 42 44 48 48 48 49 50 50 50 50 50 50 50 50 50 50 50 50 50 49 49
51 48 51 51 52 51 50 44 43 42 41 41 41 43 43 42 41 42 43 42 45 43 39 37 34 35 39 37 39 40 39 41 44 47 48 49 49 49 50 51 51 52 52 52 52 52 51 51 51 51 50 51 50 49
46 48 50 51 51 48 45 44 43 42 40 42 40 41 43 43 43 43 44 45 44 43 42 40 42 39 37 37 39 44 46 47 48 48 48 49 50 50 52 52 52 52 53 53 53 53 53 53 52 52 52 53 52 51
48 50 51 52 50 45 43 44 44 40 41 42 43 44 44 44 45 46 46 46 46 46 43 42 39 38 40 43 43 44 46 46 46 48 49 49 51 52 52 52 52 52 52 52 53 53 53 54 54 54 54 54 53 52
51 51 51 51 50 44 42 42 46 42 41 43 44 43 44 44 45 46 46 46 44 43 41 40 40 43 44 46 47 47 48 49 48 47 48 50 52 51 51 51 52 52 52 52 53 51 53 54 55 55 55 55 54 53
50 50 50 50 48 47 44 44 43 44 44 43 44 45 44 46 46 47 46 46 43 41 41 43 44 46 47 48 49 49 49 50 49 50 50 51 52 53 51 51 52 52 52 52 52 52 52 53 54 55 57 56 56 55
48 51 47 48 46 45 44 46 44 45 44 45 46 46 45 45 46 46 46 44 43 44 44 45 44 47 49 48 50 52 52 53 53 53 50 51 50 50 49 50 51 51 51 52 52 52 53 53 53 55 56 56 55 56
49 49 47 46 44 42 43 47 44 44 41 43 44 43 44 45 47 48 44 46 46 49 47 47 48 49 50 52 51 50 50 50 50 51 50 48 48 49 50 50 51 51 51 52 53 52 52 50 52 52 54 52 53 52
49 46 44 44 44 41 44 43 44 42 41 43 41 38 42 44 45 44 43 43 46 47 49 50 48 48 48 47 47 48 49 49 48 48 47 46 45 45 47 48 50 52 52 53 53 52 52 51 49 51 51 52 53 51
41 41 44 37 44 43 41 41 41 41 38 40 37 40 43 46 44 43 42 46 48 46 47 50 50 48 46 46 47 47 48 47 47 47 47 46 45 46 46 47 48 49 51 50 53 51 50 50 50 50 50 50 50 50
38 44 41 43 43 41 41 39 40 40 40 39 40 43 44 44 41 40 44 47 49 50 51 51 50 48 49 48 47 47 48 49 47 45 45 45 45 46 47 47 47 46 48 50 52 53 51 50 49 49 49 49 47 50
41 43 46 48 47 44 43 44 44 42 41 40 42 41 40 41 39 42 49 50 50 51 53 53 50 48 49 49 51 53 54 52 50 48 49 49 51 50 49 49 48 48 48 43 46 50 53 51 50 50 49 49 49 49
47 47 45 46 45 46 43 45 43 42 43 46 45 42 41 41 40 46 48 50 52 53 53 51 50 50 50 51 52 53 53 51 48 47 47 49 50 48 49 49 47 43 46 43 41 42 44 49 52 51 50 50 51 51
46 49 48 44 44 45 45 45 44 46 48 46 42 41 43 47 49 48 50 51 52 53 50 49 49 50 49 52 51 53 52 49 46 45 44 44 44 45 47 48 44 43 43 42 39 39 40 41 42 43 49 51 52 52
46 50 47 46 46 45 47 48 47 49 50 49 48 47 45 47 49 50 50 47 46 46 48 48 48 48 48 49 49 50 49 49 47 44 44 44 44 46 47 45 43 41 41 40 38 37 37 38 38 38 41 45 45 45
49 49 49 50 49 51 52 50 51 50 47 48 47 44 42 44 47 45 48 48 47 43 44 44 45 45 46 47 49 49 46 46 45 42 42 44 45 44 45 44 43 42 41 39 38 36 36 35 36 35 35 36 37 38
49 49 49 49 50 52 52 51 50 49 46 41 39 40 39 35 33 35 40 41 38 37 42 44 44 44 45 46 49 50 46 48 43 42 40 39 39 40 44 45 40 40 39 38 37 36 35 35 35 35 34 34 35 36
50 51 52 51 50 49 50 49 47 45 45 39 35 37 36 37 32 34 39 38 37 37 37 40 43 41 44 47 48 49 48 51 47 41 39 39 38 37 37 38 39 38 37 36 35 35 35 36 35 36 35 35 35 35
Lifted_Index
13 12 12 12 12 11 11 10 9 9 8 6 5 5 5 6 7 7 7 7 8 8 8 8 8 8 9 9 9 8 8 8 8 7 7 6 7 7 6 5 5 4 4 3 3 2 2 2 2 2 2 0 -1 -1
12 12 12 12 11 11 10 10 9 8 7 5 4 4 4 5 6 7 7 7 8 8 8 7 7 8 8 9 9 9 8 8 8 8 7 7 7 7 6 6 6 5 5 4 4 3 3 3 3 2 2 0 -1 -2
12 12 11 11 11 10 9 9 8 7 5 4 3 3 4 5 6 6 6 7 7 7 7 7 7 7 8 9 9 9 9 9 8 8 8 7 7 7 6 6 6 6 6 5 5 5 4 4 3 2 1 -0 -2 -2
11 11 11 11 10 10 9 8 7 6 5 4 3 3 4 5 5 5 6 6 7 6 6 6 6 7 8 8 9 9 9 9 9 8 8 8 7 7 7 7 7 7 7 6 6 5 5 3 2 1 -0 -1 -2 -2
11 11 10 10 10 9 8 8 7 6 5 4 4 4 5 5 5 5 5 6 6 6 5 5 6 7 8 8 8 9 9 9 9 9 9 8 8 8 7 7 7 7 7 7 7 6 5 4 4 3 1 -0 -1 -1
10 10 10 9 9 9 8 7 7 6 5 4 4 5 5 5 5 4 5 5 6 6 5 5 6 7 7 8 8 9 9 9 9 9 9 9 9 9 9 8 8 7 8 8 8 7 7 6 6 5 4 3 3 2
10 10 10 9 9 8 8 8 7 6 6 5 5 5 5 5 4 4 5 5 6 6 5 5 5 6 7 7 8 8 9 9 9 9 9 10 10 10 10 9 8 8 8 8 8 8 8 7 7 7 7 6 6 5
10 10 9 9 9 8 8 8 7 6 6 6 6 5 5 5 5 5 5 6 6 6 5 5 5 6 7 7 8 8 9 9 9 9 9 9 9 9 9 9 8 7 7 8 7 7 8 8 8 8 7 7 6 6
10 10 9 9 9 8 8 8 7 7 6 6 6 5 5 5 5 5 6 6 6 6 6 5 6 6 7 7 8 8 8 8 8 8 8 8 8 8 8 8 7 6 6 6 6 6 7 7 7 7 7 6 6 6
10 10 9 9 9 9 9 8 8 7 6 6 5 5 5 5 5 5 6 6 6 6 6 6 6 7 7 7 7 7 7 7 7 7 7 7 7 7 7 7 6 6 6 6 5 6 6 7 7 7 7 6 5 5
10 10 10 9 9 9 9 9 8 8 7 6 6 6 6 5 5 5 5 5 5 5 5 6 6 6 7 7 7 7 7 7 6 6 6 6 6 6 6 6 5 5 5 5 5 5 6 6 6 7 6 6 5 5
10 10 9 9 9 9 9 9 9 8 8 7 7 6 6 6 5 5 4 4 5 5 5 5 6 6 6 7 7 7 6 6 6 6 6 5 6 6 5 5 5 5 5 5 5 5 6 6 6 6 6 5 5 5
9 9 9 9 9 9 9 9 9 9 8 7 7 6 6 6 5 5 5 5 5 5 5 5 5 6 6 7 6 6 6 6 5 5 5 5 5 5 5 5 5 5 5 5 5 5 5 5 5 5 5 5 5 5
9 9 9 9 8 8 9 9 9 9 8 7 7 6 6 5 5 5 5 5 5 6 6 6 6 6 6 6 6 5 5 4 4 3 4 4 4 4 5 5 5 5 5 5 5 5 5 5 5 5 5 5 5 5
8 8 8 8 8 9 9 9 9 9 8 7 6 6 5 5 5 5 5 5 6 6 6 6 6 6 6 6 5 4 4 3 3 3 3 4 4 4 4 5 5 4 5 5 5 5 5 5 5 5 5 4 4 4
8 8 8 8 8 9 9 9 8 8 7 6 6 5 5 5 5 5 5 5 5 6 6 6 5 5 5 4 4 4 3 3 3 3 4 4 4 4 4 4 4 4 5 5 4 4 4 4 4 4 4 4 4 4
7 7 8 8 8 8 8 8 7 6 6 6 5 5 4 4 4 4 4 5 5 5 5 5 4 4 4 4 3 3 3 3 3 3 4 4 4 4 4 4 4 5 5 4 4 4 4 4 4 4 4 4 4 4
6 7 7 7 7 7 6 6 5 5 5 5 5 4 4 4 4 4 4 4 4 4 4 4 4 3 3 3 3 3 3 3 3 3 3 3 4 4 4 4 5 5 5 4 4 4 3 3 3 3 3 2 2 3
6 6 7 7 6 5 4 4 4 4 4 4 4 4 4 4 4 4 4 4 4 4 4 4 3 3 3 3 3 3 2 2 2 2 3 3 3 3 4 4 5 5 5 5 4 4 3 3 2 2 1 1 1 2
5 6 6 6 5 4 3 3 4 4 3 4 4 3 3 3 3 3 3 3 3 3 3 3 3 2 2 2 2 2 2 2 2 2 2 3 3 3 3 4 4 5 5 5 5 4 4 3 2 1 1 1 1 1
4 4 4 4 4 3 3 3 3 3 3 3 3 3 2 2 2 2 2 3 3 3 2 2 2 2 2 2 2 2 2 2 2 2 2 2 3 3 3 4 4 5 5 5 5 5 5 4 2 1 0 1 1 1
3 3 3 3 3 3 3 3 3 3 3 3 3 3 2 2 2 2 2 2 3 2 2 2 2 2 2 2 2 2 2 3 3 3 2 2 3 3 3 4 4 5 5 5 6 6 6 5 3 2 1 2 2 2
3 3 2 3 3 3 3 3 3 3 3 3 3 3 3 3 3 2 2 3 3 2 2 2 2 2 2 2 2 2 3 3 3 3 2 2 2 3 3 3 4 4 5 5 6 6 6 6 5 4 3 3 3 3
2 2 2 2 2 2 2 2 2 2 3 3 3 3 3 3 3 3 3 3 2 2 1 1 2 2 2 2 2 2 2 3 3 3 2 2 2 2 3 3 4 4 5 5 5 6 7 7 7 6 4 4 3 3
1 1 1 2 2 2 2 2 2 2 2 3 3 3 3 3 3 3 3 2 2 1 1 1 1 2 2 2 1 1 2 2 2 2 2 2 2 2 2 3 3 4 4 4 5 6 6 7 7 7 6 5 4 4
1 1 1 1 1 1 1 1 2 2 2 2 2 3 3 3 3 3 2 2 1 1 1 1 1 1 1 1 1 1 1 2 2 2 2 2 2 2 2 2 3 3 4 4 4 5 5 6 7 7 7 6 6 6
0 0 0 0 1 1 1 1 2 2 2 2 2 2 3 3 3 2 2 1 1 1 1 1 1 1 1 1 1 1 1 1 1 1 1 1 1 1 1 2 2 3 3 3 4 4 4 5 6 6 7 7 7 7
0 -0 0 0 1 1 1 1 2 2 2 2 2 3 3 3 2 2 2 2 1 1 1 1 1 1 1 1 1 1 1 1 1 1 1 1 1 1 2 2 2 3 3 3 3 3 4 4 5 5 6 6 7 7
0 -0 0 1 1 2 2 2 1 1 1 2 2 3 3 3 2 2 2 2 2 2 2 2 2 2 2 2 2 2 2 2 3 3 3 2 2 2 3 3 3 3 3 3 3 3 3 3 4 4 5 5 6 6
0 0 0 1 1 2 2 2 2 1 1 1 2 3 3 3 3 3 4 4 3 3 3 3 3 2 2 2 2 2 3 3 4 4 4 4 4 4 4 4 5 5 5 5 5 4 4 4 4 4 4 5 5 5
-0 0 0 1 1 2 2 2 2 2 2 2 2 3 3 4 4 5 5 5 4 4 3 3 3 2 2 2 2 2 3 3 4 4 5 5 5 5 5 5 6 6 6 6 6 6 6 6 6 6 6 6 6 6
-0 0 0 1 1 2 2 2 3 3 3 3 4 4 5 5 6 6 6 6 5 5 4 4 3 3 3 3 3 3 3 3 3 4 5 5 5 5 5 6 6 6 6 7 7 7 7 7 7 7 7 7 7 8
-0 0 0 0 1 1 2 3 3 3 3 4 4 5 6 6 7 7 7 7 6 6 5 4 3 3 3 3 3 3 3 3 3 4 4 5 5 5 5 5 6 6 6 6 7 7 7 7 8 8 8 8 9 9